This demonstration page uses our WeatherBlox Daily Observations layout. Learn more.

Left ArrowRight Arrow

39.92423, -83.80882

Hourly Observations for August 23, 2020

Temp ( °F °C ) Dew Point ( °F °C ) Humidity (%) Winds ( mph kmh ) Pressure ( in mb ) Visibility ( mi km ) Precip ( " mm )
12:07 am 00:07 Clear with Mist and Fog 64 18 64 18 100 100 N N/A 30.00 1016 2 3 N/A
12:14 am 00:14 Clear with Mist and Fog 64 18 64 18 100 100 N N/A 30.00 1016 1 1 N/A
12:19 am 00:19 Mostly Cloudy with Fog 64 18 64 18 100 100 N N/A 30.00 1016 1 1 N/A
12:29 am 00:29 Mostly Cloudy with Fog 64 18 64 18 100 100 N N/A 30.00 1016 1 1 N/A
12:36 am 00:36 Mostly Cloudy with Mist and Fog 64 18 64 18 100 100 N N/A 30.00 1016 1 2 N/A
12:39 am 00:39 Partly Cloudy with Mist and Fog 64 18 64 18 100 100 N N/A 30.00 1016 1 2 N/A
12:43 am 00:43 Mostly Cloudy with Mist and Fog 64 18 64 18 100 100 N N/A 30.00 1016 2 3 N/A
12:51 am 00:51 Partly Cloudy with Mist and Fog 64 18 64 18 100 100 N N/A 30.00 1016 6 10 N/A
12:52 am 00:52 Partly Cloudy with Mist and Fog 64 17.8 64 17.8 100 100 N N/A 30.01 1016 6 10 N/A
1:56 am 01:56 Clear with Mist and Fog 64 17.8 64 17.8 100 100 N N/A 30.01 1016 6 10 N/A
2:47 am 02:47 Mostly Clear with Mist and Fog 63 17 63 17 100 100 N N/A 30.00 1016 2 2 N/A
2:49 am 02:49 Mostly Cloudy with Mist and Fog 63 17 63 17 100 100 N N/A 30.00 1016 1 1 N/A
2:56 am 02:56 Mostly Cloudy with Fog 63 17.2 63 17.2 100 100 ESE 3 6 30.01 1016 1 1 N/A
2:59 am 02:59 Mostly Cloudy with Mist and Fog 63 17 63 17 100 100 SE 5 7 30.00 1016 1 2 N/A
3:04 am 03:04 Mostly Clear with Mist and Fog 63 17 63 17 100 100 N N/A 30.00 1016 2 3 N/A
3:11 am 03:11 Mostly Clear with Mist and Fog 63 17 63 17 100 100 SSE 5 7 30.00 1016 6 10 N/A
3:56 am 03:56 Clear 63 17.2 63 17.2 100 100 SSE 3 6 30.00 1016 7 11 N/A
4:56 am 04:56 Clear with Mist and Fog 61 16.1 61 16.1 100 100 N N/A 30.01 1016 6 10 N/A
5:26 am 05:26 Clear with Mist and Fog 63 17 63 17 100 100 S 3 6 30.01 1016 3 4 N/A
5:33 am 05:33 Clear with Mist and Fog 63 17 63 17 100 100 S 3 6 30.01 1016 5 8 N/A
5:56 am 05:56 Clear with Mist and Fog 61 16.1 61 16.1 100 100 SSE 3 6 30.02 1017 5 8 N/A
6:30 am 06:30 Mostly Clear with Mist and Fog 61 16 61 16 100 100 WNW 3 6 30.03 1017 3 4 N/A
6:38 am 06:38 Mostly Cloudy 63 17 63 17 100 100 NNW 3 6 30.03 1017 7 11 N/A
6:56 am 06:56 Cloudy with Mist and Fog 62 16.7 62 16.7 100 100 N N/A 30.04 1017 5 8 N/A
7:24 am 07:24 Cloudy with Mist and Fog 64 18 64 18 100 100 SSE 5 7 30.03 1017 2 3 N/A
7:31 am 07:31 Cloudy with Mist and Fog 64 18 64 18 100 100 S 3 6 30.04 1017 1 1 N/A
7:35 am 07:35 Cloudy with Fog 64 18 64 18 100 100 N N/A 30.04 1017 0 0 N/A
7:56 am 07:56 Cloudy with Fog 65 18.3 65 18.3 100 100 N N/A 30.05 1018 N/A N/A
8:56 am 08:56 Cloudy with Fog 67 19.4 67 19.4 100 100 N N/A 30.06 1018 0 0 N/A
9:07 am 09:07 Cloudy with Mist and Fog 66 19 66 19 100 100 N N/A 30.05 1017 1 1 N/A
9:14 am 09:14 Cloudy with Mist and Fog 68 20 68 20 100 100 W 3 6 30.04 1017 1 2 N/A
9:35 am 09:35 Cloudy with Mist and Fog 68 20 68 20 100 100 N N/A 30.04 1017 3 4 N/A
9:42 am 09:42 Mostly Cloudy with Mist and Fog 68 20 68 20 100 100 N N/A 30.04 1017 3 5 N/A
9:56 am 09:56 Mostly Cloudy with Mist and Fog 69 20.6 69 20.6 100 100 N N/A 30.07 1018 5 8 N/A
10:32 am 10:32 Cloudy 72 22 72 22 100 100 W 5 7 30.05 1018 10 16 N/A
10:54 am 10:54 Partly Cloudy 73 23 73 23 100 100 SW 5 7 30.05 1018 9 14 N/A
10:56 am 10:56 Partly Cloudy 74 23.3 74 23.3 100 100 SW 3 6 30.08 1019 9 14 N/A
11:38 am 11:38 Mostly Cloudy 77 25 73 23 89 89 VRB 5 7 30.04 1017 10 16 N/A
11:56 am 11:56 Mostly Cloudy 78 25.6 71 21.7 79 79 VRB 3 6 30.07 1018 10 16 N/A
12:26 pm 12:26 Partly Cloudy 79 26 72 22 79 79 WSW 5 7 30.04 1017 10 16 N/A
12:48 pm 12:48 Mostly Cloudy 79 26 72 22 79 79 VRB 3 6 30.03 1017 10 16 N/A
12:56 pm 12:56 Mostly Cloudy 78 25.6 71 21.7 79 79 WSW 6 9 30.06 1018 10 16 N/A
1:04 pm 13:04 Mostly Cloudy 79 26 72 22 79 79 SW 3 6 30.03 1017 10 16 N/A
1:52 pm 13:52 Cloudy 79 26 72 22 79 79 N N/A 30.02 1017 10 16 N/A
1:56 pm 13:56 Cloudy 79 26.1 71 21.7 77 77 N N/A 30.05 1018 10 16 N/A
2:27 pm 14:27 Mostly Cloudy 79 26 72 22 79 79 SSW 5 7 30.02 1017 10 16 N/A
2:56 pm 14:56 Mostly Cloudy 77 25 70 21.1 79 79 WSW 9 15 30.04 1017 10 16 N/A
3:56 pm 15:56 Mostly Sunny 81 27.2 70 21.1 69 69 SW 3 6 30.03 1017 10 16 0.00 0.00
4:56 pm 16:56 Mostly Sunny 82 27.8 70 21.1 67 67 SSW 5 7 30.02 1017 10 16 N/A
5:56 pm 17:56 Sunny 82 27.8 71 21.7 69 69 S 6 9 30.01 1016 10 16 N/A
6:56 pm 18:56 Sunny 80 26.7 70 21.1 71 71 S 5 7 30.01 1016 10 16 N/A
7:56 pm 19:56 Sunny 77 25 71 21.7 82 82 N N/A 30.02 1017 10 16 N/A
8:56 pm 20:56 Mostly Cloudy 74 23.3 71 21.7 91 91 S 5 7 30.03 1017 10 16 N/A
9:56 pm 21:56 Mostly Cloudy 72 22.2 71 21.7 97 97 SSW 3 6 30.06 1018 10 16 N/A
10:56 pm 22:56 Mostly Cloudy 70 21.1 70 21.1 100 100 N N/A 30.06 1018 10 16 N/A
11:56 pm 23:56 Clear 68 20 68 20 100 100 SW 6 9 30.06 1018 10 16 N/A

Powered by AerisWeather